Torna al catalogo

COSMOS 2088

AttivoMilitareLEO
NORAD 20720·PAYLOAD·🇷🇺 Russia

Lanciato Jul 30, 1990 da Plesetsk Cosmodrome

Loading…

Prossimi Passaggi (prossime 24 ore)

TLE

AggiornatoSource: Space-Track

Epoca: Sep 14, 2026, 19:05 UTC

1 20720U 90066A   26257.79540019 -.00000025  00000-0 -55752-4 0  9996
2 20720  73.5951 270.6905 0024704 133.7263  38.8843 12.40784304636264

Traccia COSMOS 2088 in tempo reale con AllMySat

Download on the App Store